Time,TemperatureF,DewpointF,PressureIn,WindDirection,WindDirectionDegrees,WindSpeedMPH,WindSpeedGustMPH,Humidity,HourlyPrecipIn,Conditions,Clouds,dailyrainin,SolarRadiationWatts/m^2,SoftwareType,DateUTC
2013-07-14 00:01:00,72.3,71.8,30.00,SE,138,1.0,3.0,98,0.00,,,0.00,0.0,meteohub,2013-07-14 04:01:00,
2013-07-14 00:02:00,72.3,71.8,30.00,SE,138,1.0,3.0,98,0.00,,,0.00,0.0,meteohub,2013-07-14 04:02:00,
2013-07-14 00:07:00,72.3,71.8,30.00,SE,140,0.0,3.0,98,0.00,,,0.00,0.0,meteohub,2013-07-14 04:07:00,
2013-07-14 00:10:00,72.3,71.8,30.00,SE,140,0.0,3.0,98,0.00,,,0.00,0.0,meteohub,2013-07-14 04:10:00,
2013-07-14 00:16:00,72.5,72.0,30.01,SE,140,0.0,2.0,98,0.00,,,0.00,0.0,meteohub,2013-07-14 04:16:00,
2013-07-14 00:22:00,72.5,72.0,30.01,ESE,117,0.0,2.0,98,0.00,,,0.00,0.0,meteohub,2013-07-14 04:22:00,
2013-07-14 00:27:00,72.5,72.0,30.01,ESE,115,0.0,2.0,98,0.00,,,0.00,0.0,meteohub,2013-07-14 04:27:00,
2013-07-14 00:32:00,72.5,72.0,30.01,South,174,0.0,2.0,98,0.00,,,0.00,0.0,meteohub,2013-07-14 04:32:00,
2013-07-14 00:38:00,72.3,71.8,30.01,South,174,0.0,2.0,98,0.00,,,0.00,0.0,meteohub,2013-07-14 04:38:00,
2013-07-14 00:44:00,72.3,71.8,30.01,South,171,0.0,2.0,98,0.00,,,0.00,0.0,meteohub,2013-07-14 04:44:00,
2013-07-14 00:50:00,72.3,71.8,30.01,South,171,0.0,2.0,98,0.00,,,0.01,0.0,meteohub,2013-07-14 04:50:00,
2013-07-14 00:57:00,72.3,71.8,30.01,South,171,1.0,2.0,98,0.01,,,0.01,0.0,meteohub,2013-07-14 04:57:00,
2013-07-14 01:02:00,72.3,71.8,30.01,South,171,0.0,2.0,98,0.01,,,0.01,0.0,meteohub,2013-07-14 05:02:00,
2013-07-14 01:09:00,72.1,71.6,30.01,South,175,1.0,2.0,98,0.01,,,0.01,0.0,meteohub,2013-07-14 05:09:00,
2013-07-14 01:15:00,72.1,71.6,30.01,South,175,0.0,2.0,98,0.01,,,0.01,0.0,meteohub,2013-07-14 05:15:00,
2013-07-14 01:21:00,72.0,71.4,30.01,South,175,0.0,2.0,98,0.01,,,0.01,0.0,meteohub,2013-07-14 05:21:00,
2013-07-14 01:27:00,72.0,71.4,30.01,South,175,0.0,1.0,98,0.01,,,0.01,0.0,meteohub,2013-07-14 05:27:00,
2013-07-14 01:34:00,71.8,71.2,30.00,South,175,0.0,1.0,98,0.01,,,0.01,0.0,meteohub,2013-07-14 05:34:00,
2013-07-14 01:40:00,71.4,70.9,30.01,South,175,0.0,1.0,98,0.01,,,0.01,0.0,meteohub,2013-07-14 05:40:00,
2013-07-14 01:46:00,71.4,70.9,30.00,South,175,0.0,1.0,98,0.00,,,0.01,0.0,meteohub,2013-07-14 05:46:00,
2013-07-14 01:52:00,71.2,70.7,30.00,South,175,0.0,1.0,98,0.00,,,0.01,0.0,meteohub,2013-07-14 05:52:00,
2013-07-14 01:57:00,71.2,70.7,30.00,South,175,0.0,0.0,98,0.00,,,0.01,0.0,meteohub,2013-07-14 05:57:00,
2013-07-14 02:02:00,71.1,70.5,30.00,South,175,0.0,0.0,98,0.00,,,0.01,0.0,meteohub,2013-07-14 06:02:00,
2013-07-14 02:07:00,71.1,70.5,30.00,South,175,0.0,0.0,98,0.00,,,0.01,0.0,meteohub,2013-07-14 06:07:00,
2013-07-14 02:12:00,71.1,70.5,30.00,South,175,0.0,0.0,98,0.00,,,0.01,0.0,meteohub,2013-07-14 06:12:00,
2013-07-14 02:17:00,70.9,70.3,30.00,South,175,0.0,0.0,98,0.00,,,0.01,0.0,meteohub,2013-07-14 06:17:00,
2013-07-14 02:23:00,70.9,70.3,30.00,South,175,0.0,0.0,98,0.00,,,0.01,0.0,meteohub,2013-07-14 06:23:00,
2013-07-14 02:29:00,70.7,70.3,30.00,South,175,0.0,0.0,99,0.00,,,0.01,0.0,meteohub,2013-07-14 06:29:00,
2013-07-14 02:36:00,70.5,70.2,30.00,South,175,0.0,0.0,99,0.00,,,0.01,0.0,meteohub,2013-07-14 06:36:00,
2013-07-14 02:42:00,70.5,70.2,29.99,South,175,0.0,0.0,99,0.00,,,0.01,0.0,meteohub,2013-07-14 06:42:00,
2013-07-14 02:47:00,70.5,70.2,30.00,South,175,0.0,0.0,99,0.00,,,0.01,0.0,meteohub,2013-07-14 06:47:00,
2013-07-14 02:54:00,70.3,70.0,29.99,South,175,0.0,0.0,99,0.00,,,0.01,0.0,meteohub,2013-07-14 06:54:00,
2013-07-14 03:00:00,70.3,70.0,29.99,South,175,0.0,0.0,99,0.00,,,0.01,0.0,meteohub,2013-07-14 07:00:00,
2013-07-14 03:07:00,70.3,70.0,29.99,South,175,0.0,1.0,99,0.00,,,0.01,0.0,meteohub,2013-07-14 07:07:00,
2013-07-14 03:12:00,70.2,69.8,29.99,South,175,0.0,1.0,99,0.00,,,0.01,0.0,meteohub,2013-07-14 07:12:00,
2013-07-14 03:19:00,70.2,69.8,29.99,South,175,0.0,1.0,99,0.00,,,0.01,0.0,meteohub,2013-07-14 07:19:00,
2013-07-14 03:25:00,70.0,69.6,29.99,South,175,0.0,0.0,99,0.00,,,0.01,0.0,meteohub,2013-07-14 07:25:00,
2013-07-14 03:31:00,70.0,69.6,29.99,South,175,0.0,0.0,99,0.00,,,0.01,0.0,meteohub,2013-07-14 07:31:00,
2013-07-14 03:37:00,70.0,69.6,29.99,South,175,0.0,0.0,99,0.00,,,0.01,0.0,meteohub,2013-07-14 07:37:00,
2013-07-14 03:42:00,70.0,69.6,29.99,South,175,0.0,0.0,99,0.00,,,0.01,0.0,meteohub,2013-07-14 07:42:00,
2013-07-14 03:47:00,70.2,69.8,29.99,South,175,0.0,0.0,99,0.00,,,0.01,0.0,meteohub,2013-07-14 07:47:00,
2013-07-14 03:52:00,70.0,69.6,29.99,South,175,0.0,0.0,99,0.00,,,0.01,0.0,meteohub,2013-07-14 07:52:00,
2013-07-14 03:57:00,70.0,69.6,29.99,South,175,1.0,1.0,99,0.00,,,0.01,0.0,meteohub,2013-07-14 07:57:00,
2013-07-14 04:02:00,69.8,69.4,29.99,South,175,0.0,1.0,99,0.00,,,0.01,0.0,meteohub,2013-07-14 08:02:00,
2013-07-14 04:07:00,69.6,69.3,29.99,South,175,0.0,1.0,99,0.00,,,0.01,0.0,meteohub,2013-07-14 08:07:00,
2013-07-14 04:12:00,69.6,69.3,29.99,South,175,0.0,1.0,99,0.00,,,0.01,0.0,meteohub,2013-07-14 08:12:00,
2013-07-14 04:17:00,69.6,69.3,29.99,South,175,0.0,1.0,99,0.00,,,0.01,0.0,meteohub,2013-07-14 08:17:00,
2013-07-14 04:22:00,69.6,69.3,29.99,South,175,0.0,1.0,99,0.00,,,0.01,0.0,meteohub,2013-07-14 08:22:00,
2013-07-14 04:27:00,69.6,69.3,29.99,South,175,0.0,1.0,99,0.00,,,0.01,0.0,meteohub,2013-07-14 08:27:00,
2013-07-14 04:32:00,69.6,69.3,29.99,South,175,0.0,1.0,99,0.00,,,0.01,0.0,meteohub,2013-07-14 08:32:00,
2013-07-14 04:37:00,69.6,69.3,29.99,South,175,0.0,1.0,99,0.00,,,0.01,0.0,meteohub,2013-07-14 08:37:00,
2013-07-14 04:42:00,69.6,69.3,29.99,South,175,0.0,1.0,99,0.00,,,0.01,0.0,meteohub,2013-07-14 08:42:00,
2013-07-14 04:47:00,69.8,69.4,29.99,South,175,0.0,0.0,99,0.00,,,0.01,0.0,meteohub,2013-07-14 08:47:00,
2013-07-14 04:52:00,70.0,69.6,29.99,South,175,0.0,0.0,99,0.00,,,0.01,0.0,meteohub,2013-07-14 08:52:00,
2013-07-14 04:57:00,70.0,69.6,29.99,South,175,0.0,0.0,99,0.00,,,0.01,0.0,meteohub,2013-07-14 08:57:00,
2013-07-14 05:02:00,70.0,69.6,30.00,South,175,0.0,0.0,99,0.00,,,0.01,0.0,meteohub,2013-07-14 09:02:00,
2013-07-14 05:07:00,69.8,69.4,29.99,South,175,0.0,0.0,99,0.00,,,0.01,0.0,meteohub,2013-07-14 09:07:00,
2013-07-14 05:12:00,69.6,69.3,29.99,South,175,0.0,0.0,99,0.00,,,0.01,0.0,meteohub,2013-07-14 09:12:00,
2013-07-14 05:17:00,69.6,69.3,30.00,South,175,0.0,0.0,99,0.00,,,0.01,0.0,meteohub,2013-07-14 09:17:00,
2013-07-14 05:22:00,69.6,69.3,30.00,South,175,0.0,0.0,99,0.00,,,0.01,0.0,meteohub,2013-07-14 09:22:00,
2013-07-14 05:27:00,69.6,69.3,29.99,South,175,0.0,0.0,99,0.00,,,0.01,0.0,meteohub,2013-07-14 09:27:00,
2013-07-14 05:32:00,69.4,69.1,29.99,South,175,0.0,0.0,99,0.00,,,0.01,0.0,meteohub,2013-07-14 09:32:00,
2013-07-14 05:37:00,69.4,69.1,29.99,South,175,0.0,0.0,99,0.00,,,0.01,0.0,meteohub,2013-07-14 09:37:00,
2013-07-14 05:42:00,69.4,69.1,30.00,South,175,0.0,0.0,99,0.00,,,0.01,0.0,meteohub,2013-07-14 09:42:00,
2013-07-14 05:47:00,69.4,69.1,30.00,South,175,0.0,0.0,99,0.00,,,0.01,0.0,meteohub,2013-07-14 09:47:00,
2013-07-14 05:53:00,69.4,69.1,30.00,South,175,0.0,0.0,99,0.00,,,0.01,0.0,meteohub,2013-07-14 09:53:00,
2013-07-14 05:59:00,69.4,69.1,30.01,South,175,0.0,0.0,99,0.00,,,0.01,0.0,meteohub,2013-07-14 09:59:00,
2013-07-14 06:06:00,69.6,69.3,30.01,South,175,0.0,0.0,99,0.00,,,0.01,0.0,meteohub,2013-07-14 10:06:00,
2013-07-14 06:12:00,69.6,69.3,30.01,South,175,0.0,0.0,99,0.00,,,0.01,0.0,meteohub,2013-07-14 10:12:00,
2013-07-14 06:17:00,69.4,69.1,30.01,South,175,0.0,0.0,99,0.00,,,0.01,0.0,meteohub,2013-07-14 10:17:00,
2013-07-14 06:22:00,69.4,69.1,30.01,South,175,0.0,0.0,99,0.00,,,0.01,0.0,meteohub,2013-07-14 10:22:00,
2013-07-14 06:27:00,69.4,69.1,30.01,South,175,0.0,0.0,99,0.00,,,0.01,0.0,meteohub,2013-07-14 10:27:00,
2013-07-14 06:32:00,69.4,69.1,30.01,South,175,0.0,0.0,99,0.00,,,0.01,0.0,meteohub,2013-07-14 10:32:00,
2013-07-14 06:37:00,69.6,69.3,30.02,South,175,0.0,0.0,99,0.00,,,0.01,0.0,meteohub,2013-07-14 10:37:00,
2013-07-14 06:42:00,69.8,69.4,30.01,South,175,0.0,0.0,99,0.00,,,0.01,5.0,meteohub,2013-07-14 10:42:00,
2013-07-14 06:49:00,69.8,69.4,30.01,South,175,0.0,0.0,99,0.00,,,0.01,5.0,meteohub,2013-07-14 10:49:00,
2013-07-14 06:55:00,70.0,69.6,30.02,South,175,1.0,1.0,99,0.00,,,0.01,7.0,meteohub,2013-07-14 10:55:00,
2013-07-14 07:02:00,70.0,69.6,30.02,South,175,0.0,1.0,99,0.00,,,0.01,9.0,meteohub,2013-07-14 11:02:00,
2013-07-14 07:07:00,70.0,69.6,30.02,South,175,0.0,1.0,99,0.00,,,0.01,12.0,meteohub,2013-07-14 11:07:00,
2013-07-14 07:12:00,70.2,69.8,30.02,South,175,0.0,1.0,99,0.00,,,0.01,16.0,meteohub,2013-07-14 11:12:00,
2013-07-14 07:17:00,70.2,69.8,30.02,South,175,0.0,1.0,99,0.00,,,0.01,23.0,meteohub,2013-07-14 11:17:00,
2013-07-14 07:22:00,70.2,69.8,30.03,South,175,0.0,1.0,99,0.00,,,0.01,33.0,meteohub,2013-07-14 11:22:00,
2013-07-14 07:27:00,70.5,70.2,30.03,South,175,1.0,1.0,99,0.00,,,0.01,32.0,meteohub,2013-07-14 11:27:00,
2013-07-14 07:32:00,70.7,70.3,30.03,South,175,0.0,1.0,99,0.00,,,0.01,26.0,meteohub,2013-07-14 11:32:00,
2013-07-14 07:39:00,71.1,70.7,30.03,South,175,0.0,1.0,99,0.00,,,0.01,28.0,meteohub,2013-07-14 11:39:00,
2013-07-14 07:45:00,71.4,71.1,30.03,South,175,0.0,1.0,99,0.00,,,0.01,28.0,meteohub,2013-07-14 11:45:00,
2013-07-14 07:51:00,72.0,71.6,30.03,South,175,0.0,0.0,99,0.00,,,0.01,28.0,meteohub,2013-07-14 11:51:00,
2013-07-14 07:57:00,72.1,71.8,30.03,South,175,0.0,0.0,99,0.00,,,0.01,23.0,meteohub,2013-07-14 11:57:00,
2013-07-14 08:02:00,72.1,71.8,30.03,South,175,0.0,1.0,99,0.00,,,0.01,21.0,meteohub,2013-07-14 12:02:00,
2013-07-14 08:07:00,72.3,72.0,30.04,South,175,0.0,1.0,99,0.00,,,0.01,23.0,meteohub,2013-07-14 12:07:00,
2013-07-14 08:12:00,72.3,72.0,30.04,South,175,0.0,1.0,99,0.00,,,0.01,26.0,meteohub,2013-07-14 12:12:00,
2013-07-14 08:17:00,72.5,72.1,30.04,South,175,0.0,0.0,99,0.00,,,0.01,30.0,meteohub,2013-07-14 12:17:00,
2013-07-14 08:22:00,72.7,72.3,30.04,South,175,0.0,0.0,99,0.00,,,0.01,39.0,meteohub,2013-07-14 12:22:00,
2013-07-14 08:28:00,72.9,72.5,30.04,South,175,0.0,0.0,99,0.00,,,0.01,54.0,meteohub,2013-07-14 12:28:00,
2013-07-14 08:34:00,72.9,72.5,30.05,South,175,0.0,0.0,99,0.00,,,0.01,114.0,meteohub,2013-07-14 12:34:00,
2013-07-14 08:41:00,73.6,73.2,30.05,South,175,0.0,1.0,99,0.00,,,0.01,207.0,meteohub,2013-07-14 12:41:00,
2013-07-14 08:47:00,74.5,74.1,30.04,SSE,158,2.0,2.0,99,0.00,,,0.01,167.0,meteohub,2013-07-14 12:47:00,
2013-07-14 08:52:00,75.2,74.8,30.05,ENE,69,1.0,1.0,99,0.00,,,0.01,151.0,meteohub,2013-07-14 12:52:00,
2013-07-14 08:57:00,76.1,75.7,30.05,SE,138,2.0,3.0,99,0.00,,,0.01,237.0,meteohub,2013-07-14 12:57:00,
2013-07-14 09:02:00,76.6,75.7,30.05,NNE,13,1.0,3.0,97,0.00,,,0.01,287.0,meteohub,2013-07-14 13:02:00,
2013-07-14 09:07:00,77.2,75.9,30.05,NE,55,1.0,3.0,96,0.00,,,0.01,192.0,meteohub,2013-07-14 13:07:00,
2013-07-14 09:12:00,77.0,75.2,30.06,NE,36,1.0,4.0,94,0.00,,,0.01,83.0,meteohub,2013-07-14 13:12:00,
2013-07-14 09:18:00,76.8,75.6,30.06,NE,36,0.0,4.0,96,0.00,,,0.01,151.0,meteohub,2013-07-14 13:18:00,
2013-07-14 09:24:00,77.0,75.7,30.06,NE,36,0.0,4.0,96,0.00,,,0.01,181.0,meteohub,2013-07-14 13:24:00,
2013-07-14 09:30:00,77.2,75.9,30.06,NE,36,1.0,4.0,96,0.00,,,0.01,200.0,meteohub,2013-07-14 13:30:00,
2013-07-14 09:36:00,77.5,75.9,30.06,East,79,0.0,3.0,95,0.00,,,0.01,274.0,meteohub,2013-07-14 13:36:00,
2013-07-14 09:42:00,77.9,76.3,30.06,SE,145,0.0,3.0,95,0.00,,,0.01,288.0,meteohub,2013-07-14 13:42:00,
2013-07-14 09:49:00,78.4,76.3,30.06,SSE,153,2.0,2.0,93,0.00,,,0.01,239.0,meteohub,2013-07-14 13:49:00,
2013-07-14 09:55:00,78.1,75.6,30.06,SE,139,0.0,2.0,92,0.00,,,0.01,190.0,meteohub,2013-07-14 13:55:00,
2013-07-14 10:01:00,77.7,75.2,30.06,ESE,108,1.0,3.0,92,0.00,,,0.01,142.0,meteohub,2013-07-14 14:01:00,
2013-07-14 10:07:00,77.5,75.4,30.06,ESE,108,0.0,3.0,93,0.00,,,0.01,125.0,meteohub,2013-07-14 14:07:00,
2013-07-14 10:12:00,77.5,75.4,30.06,ENE,63,1.0,3.0,93,0.00,,,0.01,130.0,meteohub,2013-07-14 14:12:00,
2013-07-14 10:17:00,77.4,75.2,30.07,ESE,105,0.0,3.0,93,0.00,,,0.01,149.0,meteohub,2013-07-14 14:17:00,
2013-07-14 10:23:00,77.5,75.4,30.07,NNE,25,0.0,3.0,93,0.00,,,0.01,190.0,meteohub,2013-07-14 14:23:00,
2013-07-14 10:29:00,77.7,75.2,30.07,NE,52,1.0,2.0,92,0.00,,,0.01,327.0,meteohub,2013-07-14 14:29:00,
2013-07-14 10:35:00,78.6,76.8,30.07,NE,46,2.0,2.0,94,0.00,,,0.01,406.0,meteohub,2013-07-14 14:35:00,
2013-07-14 10:41:00,78.8,75.6,30.08,NW,319,0.0,2.0,90,0.00,,,0.01,512.0,meteohub,2013-07-14 14:41:00,
2013-07-14 10:47:00,79.7,76.5,30.08,East,94,1.0,2.0,90,0.00,,,0.01,921.0,meteohub,2013-07-14 14:47:00,
2013-07-14 10:52:00,80.4,76.5,30.08,ENE,61,0.0,2.0,88,0.00,,,0.01,742.0,meteohub,2013-07-14 14:52:00,
2013-07-14 10:57:00,80.1,75.9,30.07,NNW,335,0.0,4.0,87,0.00,,,0.01,346.0,meteohub,2013-07-14 14:57:00,
2013-07-14 11:02:00,79.9,75.9,30.08,NE,34,0.0,4.0,88,0.00,,,0.01,380.0,meteohub,2013-07-14 15:02:00,
2013-07-14 11:07:00,79.9,75.0,30.08,SE,138,1.0,4.0,85,0.00,,,0.01,482.0,meteohub,2013-07-14 15:07:00,
2013-07-14 11:12:00,79.9,75.0,30.08,ENE,69,0.0,4.0,85,0.00,,,0.01,464.0,meteohub,2013-07-14 15:12:00,
2013-07-14 11:19:00,79.9,74.7,30.08,SSE,147,2.0,5.0,84,0.00,,,0.01,360.0,meteohub,2013-07-14 15:19:00,
2013-07-14 11:25:00,80.1,75.2,30.08,SSE,153,1.0,4.0,85,0.00,,,0.01,450.0,meteohub,2013-07-14 15:25:00,
2013-07-14 11:31:00,80.4,75.6,30.09,SSW,198,1.0,4.0,85,0.00,,,0.01,585.0,meteohub,2013-07-14 15:31:00,
2013-07-14 11:37:00,81.0,75.7,30.09,NE,36,0.0,3.0,84,0.00,,,0.01,461.0,meteohub,2013-07-14 15:37:00,
2013-07-14 11:42:00,80.6,74.7,30.09,ESE,102,2.0,3.0,82,0.00,,,0.01,420.0,meteohub,2013-07-14 15:42:00,
2013-07-14 11:47:00,81.1,75.2,30.09,SSE,156,0.0,3.0,82,0.00,,,0.01,464.0,meteohub,2013-07-14 15:47:00,
2013-07-14 11:52:00,81.3,74.5,30.09,SSW,193,2.0,3.0,80,0.00,,,0.01,475.0,meteohub,2013-07-14 15:52:00,
2013-07-14 11:57:00,82.2,75.0,30.09,NNE,28,0.0,4.0,79,0.00,,,0.01,875.0,meteohub,2013-07-14 15:57:00,
2013-07-14 12:02:00,82.0,74.1,30.09,NNE,26,3.0,4.0,77,0.00,,,0.01,459.0,meteohub,2013-07-14 16:02:00,
2013-07-14 12:07:00,82.0,74.8,30.09,ENE,76,1.0,6.0,79,0.00,,,0.01,473.0,meteohub,2013-07-14 16:07:00,
2013-07-14 12:12:00,82.0,74.5,30.09,ENE,64,1.0,6.0,78,0.00,,,0.01,362.0,meteohub,2013-07-14 16:12:00,
2013-07-14 12:17:00,81.3,74.1,30.09,East,99,1.0,6.0,79,0.00,,,0.01,378.0,meteohub,2013-07-14 16:17:00,
2013-07-14 12:22:00,81.3,74.1,30.09,SSE,164,1.0,4.0,79,0.00,,,0.01,434.0,meteohub,2013-07-14 16:22:00,
2013-07-14 12:27:00,81.7,75.6,30.09,SW,232,1.0,4.0,82,0.00,,,0.01,362.0,meteohub,2013-07-14 16:27:00,
2013-07-14 12:32:00,81.7,74.5,30.09,South,186,0.0,4.0,79,0.00,,,0.01,429.0,meteohub,2013-07-14 16:32:00,
2013-07-14 12:37:00,82.0,74.1,30.10,South,190,0.0,4.0,77,0.00,,,0.01,499.0,meteohub,2013-07-14 16:37:00,
2013-07-14 12:42:00,82.0,73.4,30.10,South,178,0.0,4.0,75,0.00,,,0.01,485.0,meteohub,2013-07-14 16:42:00,
2013-07-14 12:48:00,81.9,74.3,30.10,South,177,2.0,3.0,78,0.00,,,0.01,522.0,meteohub,2013-07-14 16:48:00,
2013-07-14 12:55:00,81.9,74.3,30.09,SSW,198,1.0,3.0,78,0.00,,,0.01,548.0,meteohub,2013-07-14 16:55:00,
2013-07-14 13:01:00,82.0,74.1,30.09,SSE,158,2.0,3.0,77,0.00,,,0.01,478.0,meteohub,2013-07-14 17:01:00,
2013-07-14 13:07:00,81.9,75.0,30.09,NE,56,0.0,5.0,80,0.00,,,0.01,501.0,meteohub,2013-07-14 17:07:00,
2013-07-14 13:12:00,82.2,75.0,30.10,NE,52,1.0,5.0,79,0.00,,,0.01,318.0,meteohub,2013-07-14 17:12:00,
2013-07-14 13:17:00,82.0,74.5,30.10,SSW,205,2.0,4.0,78,0.00,,,0.01,376.0,meteohub,2013-07-14 17:17:00,
2013-07-14 13:22:00,82.0,74.5,30.10,ENE,59,1.0,4.0,78,0.00,,,0.01,510.0,meteohub,2013-07-14 17:22:00,
2013-07-14 13:27:00,82.2,75.0,30.10,West,269,1.0,5.0,79,0.00,,,0.01,431.0,meteohub,2013-07-14 17:27:00,
2013-07-14 13:32:00,82.4,75.2,30.10,NE,42,3.0,5.0,79,0.00,,,0.01,561.0,meteohub,2013-07-14 17:32:00,
2013-07-14 13:37:00,83.7,76.1,30.09,NE,54,1.0,5.0,78,0.00,,,0.01,624.0,meteohub,2013-07-14 17:37:00,
2013-07-14 13:42:00,84.0,75.6,30.09,NE,55,2.0,5.0,76,0.00,,,0.01,624.0,meteohub,2013-07-14 17:42:00,
2013-07-14 13:47:00,83.7,75.2,30.09,NE,38,2.0,6.0,76,0.00,,,0.01,410.0,meteohub,2013-07-14 17:47:00,
2013-07-14 13:52:00,82.9,75.0,30.09,SSE,155,0.0,6.0,77,0.00,,,0.01,394.0,meteohub,2013-07-14 17:52:00,
2013-07-14 13:57:00,82.9,75.4,30.09,NNW,342,1.0,6.0,78,0.00,,,0.01,496.0,meteohub,2013-07-14 17:57:00,
2013-07-14 14:02:00,82.9,75.0,30.09,SSE,157,1.0,6.0,77,0.00,,,0.01,466.0,meteohub,2013-07-14 18:02:00,
2013-07-14 14:07:00,83.1,75.6,30.09,NE,42,1.0,4.0,78,0.00,,,0.01,497.0,meteohub,2013-07-14 18:07:00,
2013-07-14 14:12:00,83.1,75.6,30.09,East,100,3.0,4.0,78,0.00,,,0.01,506.0,meteohub,2013-07-14 18:12:00,
2013-07-14 14:18:00,83.1,75.2,30.09,NNE,30,1.0,4.0,77,0.00,,,0.01,545.0,meteohub,2013-07-14 18:18:00,
2013-07-14 14:24:00,83.3,76.1,30.09,South,184,2.0,4.0,79,0.00,,,0.01,559.0,meteohub,2013-07-14 18:24:00,
2013-07-14 14:30:00,84.0,75.6,30.09,NE,48,0.0,5.0,76,0.00,,,0.01,533.0,meteohub,2013-07-14 18:30:00,
2013-07-14 14:36:00,84.6,75.7,30.09,NE,53,6.0,6.0,75,0.00,,,0.01,543.0,meteohub,2013-07-14 18:36:00,
2013-07-14 14:42:00,84.4,75.9,30.09,NE,55,2.0,5.0,76,0.00,,,0.01,478.0,meteohub,2013-07-14 18:42:00,
2013-07-14 14:49:00,83.1,75.2,30.09,NNE,21,2.0,6.0,77,0.00,,,0.01,120.0,meteohub,2013-07-14 18:49:00,
2013-07-14 14:55:00,82.0,75.2,30.09,NW,324,2.0,5.0,80,0.00,,,0.01,188.0,meteohub,2013-07-14 18:55:00,
2013-07-14 15:01:00,81.3,74.8,30.09,NE,44,4.0,5.0,81,0.00,,,0.01,227.0,meteohub,2013-07-14 19:01:00,
2013-07-14 15:07:00,81.1,74.3,30.09,ENE,75,1.0,6.0,80,0.00,,,0.01,232.0,meteohub,2013-07-14 19:07:00,
2013-07-14 15:13:00,81.1,75.6,30.09,NE,39,0.0,6.0,83,0.00,,,0.01,204.0,meteohub,2013-07-14 19:13:00,
2013-07-14 15:20:00,81.3,76.1,30.09,East,91,1.0,6.0,84,0.00,,,0.01,424.0,meteohub,2013-07-14 19:20:00,
2013-07-14 15:26:00,83.7,77.5,30.08,NE,47,1.0,4.0,82,0.00,,,0.01,1137.0,meteohub,2013-07-14 19:26:00,
2013-07-14 15:32:00,83.8,75.9,30.08,ENE,67,2.0,4.0,77,0.00,,,0.01,601.0,meteohub,2013-07-14 19:32:00,
2013-07-14 15:37:00,83.7,76.1,30.07,East,98,1.0,5.0,78,0.00,,,0.01,513.0,meteohub,2013-07-14 19:37:00,
2013-07-14 15:44:00,82.4,75.6,30.07,ENE,67,2.0,5.0,80,0.00,,,0.01,278.0,meteohub,2013-07-14 19:44:00,
2013-07-14 15:50:00,83.5,76.6,30.07,ENE,74,4.0,6.0,80,0.00,,,0.01,840.0,meteohub,2013-07-14 19:50:00,
2013-07-14 15:57:00,84.6,75.7,30.07,SE,126,1.0,6.0,75,0.00,,,0.01,810.0,meteohub,2013-07-14 19:57:00,
2013-07-14 16:02:00,85.3,76.8,30.07,SE,130,2.0,6.0,76,0.00,,,0.01,904.0,meteohub,2013-07-14 20:02:00,
2013-07-14 16:07:00,85.5,75.4,30.07,ESE,105,1.0,6.0,72,0.00,,,0.01,886.0,meteohub,2013-07-14 20:07:00,
2013-07-14 16:12:00,85.5,75.4,30.07,NNE,20,1.0,6.0,72,0.00,,,0.01,891.0,meteohub,2013-07-14 20:12:00,
2013-07-14 16:18:00,86.0,75.6,30.06,SE,131,1.0,6.0,71,0.00,,,0.01,881.0,meteohub,2013-07-14 20:18:00,
2013-07-14 16:24:00,85.8,76.1,30.06,South,183,2.0,6.0,73,0.00,,,0.01,260.0,meteohub,2013-07-14 20:24:00,
2013-07-14 16:31:00,85.8,76.1,30.06,East,83,4.0,6.0,73,0.00,,,0.01,243.0,meteohub,2013-07-14 20:31:00,
2013-07-14 16:37:00,84.9,75.2,30.05,East,84,2.0,6.0,73,0.00,,,0.01,605.0,meteohub,2013-07-14 20:37:00,
2013-07-14 16:42:00,84.9,74.8,30.06,ENE,62,1.0,6.0,72,0.00,,,0.01,390.0,meteohub,2013-07-14 20:42:00,
2013-07-14 16:47:00,84.7,75.2,30.06,ENE,74,2.0,7.0,73,0.00,,,0.01,589.0,meteohub,2013-07-14 20:47:00,
2013-07-14 16:52:00,85.1,75.0,30.06,NNW,332,1.0,7.0,72,0.00,,,0.01,494.0,meteohub,2013-07-14 20:52:00,
2013-07-14 16:57:00,85.1,75.9,30.06,NE,45,2.0,7.0,74,0.00,,,0.01,573.0,meteohub,2013-07-14 20:57:00,
2013-07-14 17:02:00,85.1,76.3,30.06,NE,40,0.0,7.0,75,0.00,,,0.01,621.0,meteohub,2013-07-14 21:02:00,
2013-07-14 17:07:00,85.1,75.0,30.06,East,84,3.0,5.0,72,0.00,,,0.01,684.0,meteohub,2013-07-14 21:07:00,
2013-07-14 17:12:00,85.3,74.8,30.06,East,85,2.0,5.0,71,0.00,,,0.01,696.0,meteohub,2013-07-14 21:12:00,
2013-07-14 17:17:00,85.5,75.0,30.06,SSE,148,1.0,7.0,71,0.00,,,0.01,656.0,meteohub,2013-07-14 21:17:00,
2013-07-14 17:22:00,85.6,74.7,30.06,NE,46,1.0,7.0,70,0.00,,,0.01,638.0,meteohub,2013-07-14 21:22:00,
2013-07-14 17:27:00,84.9,74.8,30.06,East,87,1.0,7.0,72,0.00,,,0.01,487.0,meteohub,2013-07-14 21:27:00,
2013-07-14 17:32:00,84.6,74.1,30.06,SSE,160,3.0,7.0,71,0.00,,,0.01,297.0,meteohub,2013-07-14 21:32:00,
2013-07-14 17:37:00,84.2,74.1,30.06,SE,126,4.0,5.0,72,0.00,,,0.01,578.0,meteohub,2013-07-14 21:37:00,
2013-07-14 17:42:00,84.4,73.6,30.06,ESE,102,1.0,5.0,70,0.00,,,0.01,633.0,meteohub,2013-07-14 21:42:00,
2013-07-14 17:48:00,84.0,73.6,30.06,ENE,78,1.0,5.0,71,0.00,,,0.01,251.0,meteohub,2013-07-14 21:48:00,
2013-07-14 17:54:00,82.9,73.8,30.06,SE,134,3.0,7.0,74,0.00,,,0.01,174.0,meteohub,2013-07-14 21:54:00,
2013-07-14 18:00:00,82.2,73.6,30.06,ESE,110,1.0,7.0,75,0.00,,,0.01,137.0,meteohub,2013-07-14 22:00:00,
2013-07-14 18:06:00,82.0,74.1,30.06,ENE,78,2.0,7.0,77,0.00,,,0.01,330.0,meteohub,2013-07-14 22:06:00,
2013-07-14 18:12:00,82.8,74.8,30.06,ENE,63,3.0,6.0,77,0.00,,,0.01,107.0,meteohub,2013-07-14 22:12:00,
2013-07-14 18:17:00,83.1,74.3,30.06,ESE,120,3.0,6.0,75,0.00,,,0.01,111.0,meteohub,2013-07-14 22:17:00,
2013-07-14 18:22:00,83.1,74.3,30.06,ESE,121,3.0,5.0,75,0.00,,,0.01,100.0,meteohub,2013-07-14 22:22:00,
2013-07-14 18:27:00,82.9,73.8,30.06,SE,134,3.0,5.0,74,0.00,,,0.01,102.0,meteohub,2013-07-14 22:27:00,
2013-07-14 18:37:00,82.8,74.5,30.06,ENE,68,5.0,7.0,76,0.00,,,0.01,88.0,meteohub,2013-07-14 22:37:00,
2013-07-14 18:38:00,82.6,74.3,30.06,East,91,1.0,7.0,76,0.00,,,0.01,91.0,meteohub,2013-07-14 22:38:00,
2013-07-14 18:44:00,82.0,74.1,30.06,East,100,1.0,7.0,77,0.00,,,0.01,77.0,meteohub,2013-07-14 22:44:00,
2013-07-14 18:50:00,82.2,74.3,30.06,NE,45,2.0,11.0,77,0.00,,,0.01,32.0,meteohub,2013-07-14 22:50:00,
2013-07-14 18:57:00,81.1,73.9,30.06,ESE,107,1.0,7.0,79,0.00,,,0.01,53.0,meteohub,2013-07-14 22:57:00,
2013-07-14 19:02:00,81.1,73.9,30.06,ENE,62,3.0,7.0,79,0.00,,,0.01,97.0,meteohub,2013-07-14 23:02:00,
2013-07-14 19:07:00,81.5,73.9,30.06,ESE,104,5.0,8.0,78,0.00,,,0.01,127.0,meteohub,2013-07-14 23:07:00,
2013-07-14 19:12:00,81.7,74.5,30.07,ESE,113,2.0,8.0,79,0.00,,,0.01,90.0,meteohub,2013-07-14 23:12:00,
2013-07-14 19:17:00,81.1,74.3,30.07,East,89,3.0,8.0,80,0.00,,,0.01,88.0,meteohub,2013-07-14 23:17:00,
2013-07-14 19:22:00,80.4,74.1,30.07,West,262,1.0,8.0,81,0.00,,,0.01,33.0,meteohub,2013-07-14 23:22:00,
2013-07-14 19:27:00,79.9,73.9,30.07,SSE,154,2.0,5.0,82,0.00,,,0.01,21.0,meteohub,2013-07-14 23:27:00,
2013-07-14 19:32:00,79.5,73.9,30.08,South,190,1.0,5.0,83,0.00,,,0.01,21.0,meteohub,2013-07-14 23:32:00,
2013-07-14 19:37:00,79.2,73.9,30.08,South,190,1.0,5.0,84,0.00,,,0.01,21.0,meteohub,2013-07-14 23:37:00,
2013-07-14 19:42:00,79.0,74.1,30.08,South,185,0.0,5.0,85,0.00,,,0.01,21.0,meteohub,2013-07-14 23:42:00,
2013-07-14 19:49:00,79.0,74.5,30.09,ENE,69,1.0,2.0,86,0.00,,,0.01,37.0,meteohub,2013-07-14 23:49:00,
2013-07-14 19:55:00,79.0,73.8,30.09,ENE,69,1.0,2.0,84,0.00,,,0.01,18.0,meteohub,2013-07-14 23:55:00,
2013-07-14 20:01:00,78.8,73.6,30.09,ENE,57,0.0,2.0,84,0.00,,,0.01,18.0,meteohub,2013-07-15 00:01:00,
2013-07-14 20:07:00,78.6,73.4,30.09,ENE,57,0.0,2.0,84,0.00,,,0.01,14.0,meteohub,2013-07-15 00:07:00,
2013-07-14 20:14:00,78.3,73.4,30.09,ENE,58,0.0,2.0,85,0.00,,,0.00,11.0,meteohub,2013-07-15 00:14:00,
2013-07-14 20:20:00,78.1,73.6,30.09,ENE,58,0.0,2.0,86,0.00,,,0.00,5.0,meteohub,2013-07-15 00:20:00,
2013-07-14 20:26:00,77.5,73.0,30.09,ENE,58,0.0,1.0,86,0.00,,,0.00,0.0,meteohub,2013-07-15 00:26:00,
2013-07-14 20:32:00,77.4,73.2,30.09,ENE,58,0.0,1.0,87,0.00,,,0.00,0.0,meteohub,2013-07-15 00:32:00,
2013-07-14 20:39:00,77.0,73.2,30.10,ENE,58,0.0,1.0,88,0.00,,,0.00,0.0,meteohub,2013-07-15 00:39:00,
2013-07-14 20:45:00,76.6,73.2,30.10,ENE,58,1.0,1.0,89,0.00,,,0.00,0.0,meteohub,2013-07-15 00:45:00,
2013-07-14 20:51:00,76.3,73.0,30.10,ENE,58,0.0,1.0,90,0.00,,,0.00,0.0,meteohub,2013-07-15 00:51:00,
2013-07-14 20:57:00,76.1,73.2,30.10,ENE,58,0.0,1.0,91,0.00,,,0.00,0.0,meteohub,2013-07-15 00:57:00,
2013-07-14 21:02:00,75.7,72.9,30.10,ENE,58,0.0,1.0,91,0.00,,,0.00,0.0,meteohub,2013-07-15 01:02:00,
2013-07-14 21:07:00,75.6,73.0,30.10,ENE,58,0.0,1.0,92,0.00,,,0.00,0.0,meteohub,2013-07-15 01:07:00,
2013-07-14 21:12:00,75.4,72.9,30.11,ENE,58,0.0,1.0,92,0.00,,,0.00,0.0,meteohub,2013-07-15 01:12:00,
2013-07-14 21:17:00,75.2,73.0,30.11,ENE,58,0.0,1.0,93,0.00,,,0.00,0.0,meteohub,2013-07-15 01:17:00,
2013-07-14 21:22:00,75.4,73.2,30.11,ENE,58,0.0,1.0,93,0.00,,,0.00,0.0,meteohub,2013-07-15 01:22:00,
2013-07-14 21:27:00,75.4,73.2,30.11,ENE,58,0.0,1.0,93,0.00,,,0.00,0.0,meteohub,2013-07-15 01:27:00,
2013-07-14 21:32:00,75.4,73.2,30.11,ENE,58,0.0,1.0,93,0.00,,,0.00,0.0,meteohub,2013-07-15 01:32:00,
2013-07-14 21:37:00,75.2,73.0,30.11,ENE,58,0.0,1.0,93,0.00,,,0.00,0.0,meteohub,2013-07-15 01:37:00,
2013-07-14 21:42:00,75.0,72.9,30.11,ENE,58,0.0,1.0,93,0.00,,,0.00,0.0,meteohub,2013-07-15 01:42:00,
2013-07-14 21:47:00,75.0,72.9,30.11,ENE,58,0.0,1.0,93,0.00,,,0.00,0.0,meteohub,2013-07-15 01:47:00,
2013-07-14 21:52:00,74.8,72.7,30.12,ENE,58,0.0,1.0,93,0.00,,,0.00,0.0,meteohub,2013-07-15 01:52:00,
2013-07-14 21:57:00,75.0,72.9,30.12,ENE,58,0.0,0.0,93,0.00,,,0.00,0.0,meteohub,2013-07-15 01:57:00,
2013-07-14 22:02:00,75.2,73.0,30.12,ENE,58,0.0,0.0,93,0.00,,,0.00,0.0,meteohub,2013-07-15 02:02:00,
2013-07-14 22:07:00,75.4,73.2,30.12,ENE,58,0.0,1.0,93,0.00,,,0.00,0.0,meteohub,2013-07-15 02:07:00,
2013-07-14 22:12:00,75.4,72.9,30.12,ENE,58,0.0,1.0,92,0.00,,,0.00,0.0,meteohub,2013-07-15 02:12:00,
2013-07-14 22:17:00,75.4,72.9,30.12,ENE,58,0.0,1.0,92,0.00,,,0.00,0.0,meteohub,2013-07-15 02:17:00,
2013-07-14 22:22:00,75.0,72.9,30.13,ENE,58,0.0,1.0,93,0.00,,,0.00,0.0,meteohub,2013-07-15 02:22:00,
2013-07-14 22:27:00,74.8,72.7,30.14,ENE,58,0.0,1.0,93,0.00,,,0.00,0.0,meteohub,2013-07-15 02:27:00,
2013-07-14 22:32:00,74.7,72.9,30.13,ENE,58,0.0,1.0,94,0.00,,,0.00,0.0,meteohub,2013-07-15 02:32:00,
2013-07-14 22:37:00,74.7,72.9,30.13,ENE,58,0.0,1.0,94,0.00,,,0.00,0.0,meteohub,2013-07-15 02:37:00,
2013-07-14 22:42:00,74.7,72.9,30.13,ENE,58,0.0,1.0,94,0.00,,,0.00,0.0,meteohub,2013-07-15 02:42:00,
2013-07-14 22:47:00,74.5,73.0,30.13,ENE,58,1.0,2.0,95,0.00,,,0.00,0.0,meteohub,2013-07-15 02:47:00,
2013-07-14 22:52:00,74.3,72.9,30.13,ENE,58,0.0,2.0,95,0.00,,,0.00,0.0,meteohub,2013-07-15 02:52:00,
2013-07-14 22:57:00,74.3,72.9,30.14,ENE,58,0.0,2.0,95,0.00,,,0.00,0.0,meteohub,2013-07-15 02:57:00,
2013-07-14 23:02:00,74.1,72.7,30.14,ENE,58,0.0,2.0,95,0.00,,,0.00,0.0,meteohub,2013-07-15 03:02:00,
2013-07-14 23:07:00,73.9,72.5,30.14,ENE,58,0.0,1.0,95,0.00,,,0.00,0.0,meteohub,2013-07-15 03:07:00,
2013-07-14 23:12:00,73.9,72.5,30.14,ENE,58,0.0,1.0,95,0.00,,,0.00,0.0,meteohub,2013-07-15 03:12:00,
2013-07-14 23:17:00,73.9,72.5,30.14,ENE,58,0.0,1.0,95,0.00,,,0.00,0.0,meteohub,2013-07-15 03:17:00,
2013-07-14 23:22:00,73.9,72.5,30.13,ENE,58,0.0,1.0,95,0.00,,,0.00,0.0,meteohub,2013-07-15 03:22:00,
2013-07-14 23:27:00,73.9,72.5,30.14,ENE,58,0.0,1.0,95,0.00,,,0.00,0.0,meteohub,2013-07-15 03:27:00,
2013-07-14 23:32:00,73.8,72.5,30.13,ENE,58,0.0,1.0,96,0.00,,,0.00,0.0,meteohub,2013-07-15 03:32:00,
2013-07-14 23:37:00,73.6,72.3,30.13,ENE,58,0.0,1.0,96,0.00,,,0.00,0.0,meteohub,2013-07-15 03:37:00,
2013-07-14 23:42:00,73.6,72.3,30.14,ENE,58,0.0,1.0,96,0.00,,,0.00,0.0,meteohub,2013-07-15 03:42:00,
2013-07-14 23:47:00,73.4,72.1,30.13,ENE,58,0.0,1.0,96,0.00,,,0.00,0.0,meteohub,2013-07-15 03:47:00,
2013-07-14 23:52:00,73.4,72.1,30.14,ENE,58,0.0,1.0,96,0.00,,,0.00,0.0,meteohub,2013-07-15 03:52:00,
2013-07-14 23:57:00,73.2,72.0,30.14,ENE,58,0.0,1.0,96,0.00,,,0.00,0.0,meteohub,2013-07-15 03:57:00,